Voltar ao catálogo

COSMOS 1823 DEB

AtivoLEO
NORAD 18742·DEBRIS·🇷🇺 Russia

Lançado Feb 20, 1987 de Plesetsk Cosmodrome

Loading…

Próximas Passagens (próximas 24 horas)

TLE

AtualizadoSource: Space-Track

Época: Sep 14, 2026, 12:39 UTC

1 18742U 87020V   26257.52722750  .00000181  00000-0  11531-2 0  9994
2 18742  73.5151  93.9853 0056550  13.4638  15.0451 12.59378988773080

Acompanhe COSMOS 1823 DEB em tempo real com AllMySat

Download on the App Store